Regional Weather Roundup
Issued by NWS

Home | Current Version | Previous Version | Graphics & Text | Print | Product List | Glossary On
Versions: 1 2 3 4 5 6 7 8 9 10 11 12 13 14 15 16 17 18 19 20 21 22 23 24 25 26 27 28 29 30 31 32 33 34 35 36 37 38 39 40 41 42 43 44 45 46 47 48 49 50
000
ASUS43 KLMK 301102
RWRKY
KENTUCKY REGIONAL WEATHER ROUNDUP
NATIONAL WEATHER SERVICE LOUISVILLE KY
700 AM EDT SUN APR 30 2017

NOTE "FAIR" INDICATES FEW OR NO CLOUDS BELOW 12,000 FEET
WITH NO SIGNIFICANT WEATHER AND/OR OBSTRUCTIONS TO VISIBILITY.

KYZ001>023-026-027-061>063-070>075-301200-
WESTERN AND SOUTH CENTRAL KENTUCKY

CITY           SKY/WX    TMP DP  RH WIND       PRES   REMARKS
PADUCAH        HVY RAIN  65  63  93 SE7       29.82F FOG
HENDERSON        N/A    N/A N/A N/A MISG        N/A
OWENSBORO      LGT RAIN  69  64  84 SW8       29.85R
HOPKINSVILLE   LGT RAIN  70  64  83 W15G31    29.93R
BOWLING GREEN  CLOUDY    74  66  76 S9        29.91R
GLASGOW        NOT AVBL
$$

KYZ024-025-028>034-038-045-046-053-301200-
NORTH CENTRAL KENTUCKY

CITY           SKY/WX    TMP DP  RH WIND       PRES   REMARKS
LOUISVILLE/SDF CLOUDY    72  65  78 S7        29.87F
LOUISVILLE/LOU CLOUDY    74  66  76 SE7       29.88F
FORT KNOX      CLOUDY    70  64  81 S12       29.87S
$$

KYZ035>037-039>044-047>052-055>060-089>105-301200-
NORTHEAST KENTUCKY

CITY           SKY/WX    TMP DP  RH WIND       PRES   REMARKS
LEXINGTON      CLEAR     72  64  76 S10       29.94F
COVINGTON      CLOUDY    68  63  84 S6        29.91F
FRANKFORT      CLOUDY    71  63  75 SE8       29.91F
$$

KYZ054-064>069-076>088-106>120-301200-
SOUTHEAST KENTUCKY

CITY           SKY/WX    TMP DP  RH WIND       PRES   REMARKS
JACKSON        CLEAR     70  62  76 SE6       30.01F
LONDON         CLOUDY    73  61  65 S8        29.99F
SOMERSET       CLEAR     72  63  73 S7        29.96F
MIDDLESBORO    MOCLDY    61  61 100 CALM      30.03S
MONTICELLO     PTSUNNY   71  65  81 VRB7      29.97F
$$





USA.gov is the U.S. government's official web portal to all federal, state and local government web resources and services.